Location: Newark
(49.8348°N, 24.0280°E)
Time: 08:39:06
(UTC+00:00)

deb Explorer IX - All Passes

Search period start: 20 January 2020 00:00
Search period end: 30 January 2020 00:00
Orbit: 548 x 1101 km, 38.8° (Epoch: 19 January)

Date Brightness Start Highest point End Pass type
(mag) Time Alt. Az. Time Alt. Az. Time Alt. Az.
20 Jan - 01:16:51 10° WSW 01:22:46 30° S 01:28:09 10° SE visible
20 Jan - 03:04:41 10° WSW 03:08:49 18° SSW 03:12:39 10° SSE visible
20 Jan - 21:22:53 10° SSW 21:27:39 19° SSE 21:32:19 10° ESE night (unlit)
20 Jan - 23:07:45 10° SW 23:13:55 31° S 23:19:45 10° ESE night (unlit)
21 Jan - 00:54:20 10° WSW 01:00:23 31° S 01:05:55 10° SE night (unlit)
21 Jan - 02:42:09 10° WSW 02:46:28 18° SSW 02:50:27 10° SSE visible
21 Jan - 21:00:24 10° SSW 21:05:13 19° SSE 21:09:59 10° ESE night (unlit)
21 Jan - 22:45:16 10° SW 22:51:30 31° S 22:57:27 10° ESE night (unlit)
22 Jan - 00:31:50 10° WSW 00:37:59 31° S 00:43:38 10° SE night (unlit)
22 Jan - 02:19:37 10° WSW 02:24:05 19° SSW 02:28:14 10° SSE visible
22 Jan - 20:37:56 10° SSW 20:42:46 19° SSE 20:47:37 10° ESE night (unlit)
22 Jan - 22:22:47 10° SW 22:29:03 32° S 22:35:07 10° ESE night (unlit)
23 Jan - 00:09:20 10° WSW 00:15:33 32° S 00:21:21 10° SE night (unlit)
23 Jan - 01:57:06 10° WSW 02:01:42 19° SSW 02:05:59 10° SSE visible
23 Jan - 20:15:28 10° SSW 20:20:19 20° SSE 20:25:13 10° ESE night (unlit)
23 Jan - 22:00:19 10° SW 22:06:36 32° S 22:12:45 10° ESE night (unlit)
23 Jan - 23:46:51 10° WSW 23:53:07 32° S 23:59:02 10° SE night (unlit)
24 Jan - 01:34:34 10° WSW 01:39:17 19° SSW 01:43:42 10° SSE night (unlit)
24 Jan - 19:53:02 10° SSW 19:57:52 20° SSE 20:02:47 10° ESE night (unlit)
24 Jan - 21:37:52 10° SW 21:44:08 32° S 21:50:21 10° ESE night (unlit)
24 Jan - 23:24:21 10° WSW 23:30:39 32° S 23:36:41 10° SE night (unlit)
25 Jan - 01:12:03 10° WSW 01:16:51 19° SSW 01:21:24 10° SSE night (unlit)
25 Jan - 19:30:37 10° SSW 19:35:24 20° SSE 19:40:20 10° ESE night (unlit)
25 Jan - 21:15:25 10° SW 21:21:39 32° S 21:27:56 10° ESE night (unlit)
25 Jan - 23:01:53 10° WSW 23:08:11 32° S 23:14:19 10° SE night (unlit)
26 Jan - 00:49:32 10° WSW 00:54:24 20° SSW 00:59:03 10° SSE night (unlit)
26 Jan - 19:08:13 10° SSW 19:12:57 20° SSE 19:17:51 10° ESE visible
26 Jan - 20:53:00 10° SW 20:59:10 32° S 21:05:29 10° ESE night (unlit)
26 Jan - 22:39:24 10° WSW 22:45:43 32° S 22:51:54 10° SE night (unlit)
27 Jan - 00:27:02 10° WSW 00:31:57 20° SSW 00:36:41 10° SSE night (unlit)
27 Jan - 18:45:51 10° SSW 18:50:29 19° SSE 18:55:20 10° ESE visible
27 Jan - 20:30:35 10° SW 20:36:41 32° S 20:43:00 10° ESE night (unlit)
27 Jan - 22:16:57 10° WSW 22:23:13 32° S 22:29:28 10° SE night (unlit)
28 Jan - 00:04:32 10° WSW 00:09:29 20° SSW 00:14:16 10° SSE night (unlit)
28 Jan - 18:23:29 10° SSW 18:28:01 19° SSE 18:32:48 10° ESE visible
28 Jan - 20:08:11 10° SW 20:14:12 32° S 20:20:30 10° ESE visible
28 Jan - 21:54:30 10° WSW 22:00:44 32° S 22:07:00 10° SE night (unlit)
28 Jan - 23:42:03 10° WSW 23:46:59 20° SSW 23:51:50 10° SSE night (unlit)
29 Jan - 18:01:09 10° SSW 18:05:33 19° SSE 18:10:14 10° ESE visible
29 Jan - 19:45:47 10° SW 19:51:43 32° S 19:57:59 10° ESE visible
29 Jan - 21:32:05 10° WSW 21:38:13 32° S 21:44:31 10° SE night (unlit)
29 Jan - 23:19:35 10° WSW 23:24:30 20° SSW 23:29:22 10° SSE night (unlit)
